FW4191 Weather Reports


Display with metric or nautical units.
time (UTC)temp
F
wind
direction
speed
MPH
gust
MPH
rain 1hr
in
rain 24hr
in
rain mn
in
humidity
%
barometer
mb
20260506044127 51 5 0.0 1.0 0.04 0.52 0.03 93 1071.1
20260506044028 51 16 0.0 2.0 0.04 0.52 0.03 94 1071.0
20260506043027 52 247 0.0 0.0 0.04 0.51 0.02 93 1071.4
20260506042126 53 67 2.0 5.0 0.04 0.50 0.01 94 1071.2
20260506035210 55 180 0.0 2.0 0.04 0.48 0.48 94 1070.6
20260506034212 56 301 0.0 1.0 0.05 0.48 0.48 93 1070.7
20260506033211 57 225 0.0 0.0 0.05 0.47 0.47 93 1070.7
20260506033109 57 225 0.0 0.0 0.05 0.47 0.47 93 1070.7
20260506032109 59 270 1.0 2.0 0.05 0.46 0.46 92 1070.8
20260506032026 59 251 0.0 1.0 0.05 0.46 0.46 92 1070.8
20260506031110 59 247 0.0 0.0 0.05 0.45 0.45 92 1070.9
20260506030110 59 247 0.0 0.0 0.05 0.44 0.44 93 1070.9
20260506025208 59 247 0.0 0.0 0.06 0.44 0.44 93 1071.3
20260506025111 59 247 0.0 0.0 0.06 0.44 0.43 92 1071.3
20260506024109 59 247 0.0 0.0 0.06 0.43 0.43 93 1071.8
20260506023208 59 247 0.0 0.0 0.05 0.42 0.42 92 1071.9
20260506023110 59 247 0.0 0.0 0.05 0.42 0.42 93 1071.9
20260506021309 59 247 0.0 0.0 0.05 0.40 0.40 93 1071.8
20260506020310 59 247 0.0 0.0 0.05 0.39 0.39 93 1071.9
20260506015310 59 247 0.0 0.0 0.05 0.38 0.38 93 1071.8
20260506014311 59 247 0.0 0.0 0.06 0.38 0.38 92 1071.7
20260506013408 59 247 0.0 0.0 0.05 0.37 0.37 93 1071.6
20260506012411 59 247 0.0 0.0 0.05 0.36 0.36 93 1071.6
20260506011508 59 247 0.0 0.0 0.05 0.35 0.35 93 1071.6
20260506010511 59 247 0.0 0.0 0.05 0.34 0.34 92 1071.6
20260506005510 59 247 0.0 0.0 0.04 0.33 0.33 92 1071.5
20260506004525 59 247 0.0 0.0 0.03 0.32 0.32 92 1071.4
20260506003510 59 247 0.0 0.0 0.04 0.32 0.32 93 1071.2
20260506002607 59 247 0.0 0.0 0.03 0.31 0.31 93 1071.1
20260506001610 59 202 0.0 0.0 0.02 0.30 0.30 93 1070.9
20260506001524 59 202 0.0 0.0 0.02 0.30 0.30 93 1070.9
20260505235608 60 225 0.0 0.0 0.01 0.28 0.28 92 1071.1
20260505234610 60 225 0.0 0.0 0.01 0.28 0.28 92 1071.0
20260505233624 60 269 0.0 1.0 0.01 0.28 0.28 93 1071.3
20260505232624 60 270 0.0 0.0 0.02 0.28 0.28 93 1071.3
20260505230710 60 247 0.0 0.0 0.03 0.28 0.28 92 1071.4
20260505224709 60 247 0.0 0.0 0.04 0.28 0.28 93 1071.8
20260505224611 60 247 0.0 0.0 0.05 0.28 0.28 93 1071.8
20260505223610 60 210 3.0 6.0 0.04 0.27 0.27 92 1071.9
20260505221610 60 212 1.0 3.0 0.05 0.26 0.26 92 1072.1
20260505220610 60 255 0.0 2.0 0.05 0.25 0.25 91 1072.3
20260505220525 60 206 0.0 1.0 0.05 0.25 0.25 92 1072.3
20260505215509 60 249 0.0 2.0 0.05 0.24 0.24 91 1072.2
20260505215410 60 306 1.0 2.0 0.05 0.24 0.24 92 1072.2
20260505214410 60 262 1.0 2.0 0.05 0.23 0.23 92 1072.2
20260505213508 60 198 2.0 4.0 0.07 0.23 0.23 92 1072.3
20260505212511 60 337 0.0 0.0 0.07 0.22 0.22 92 1072.2
20260505211525 61 215 0.0 2.0 0.08 0.21 0.21 91 1072.3
20260505210511 61 314 0.0 1.0 0.09 0.20 0.20 91 1072.3
20260505205511 61 246 0.0 2.0 0.10 0.19 0.19 91 1072.3
20260505204608 61 225 0.0 0.0 0.10 0.18 0.18 90 1072.3
20260505203609 61 316 0.0 2.0 0.10 0.17 0.16 89 1072.3
20260505202624 61 202 1.0 3.0 0.08 0.15 0.15 88 1072.3
20260505201709 61 277 0.0 1.0 0.06 0.13 0.13 86 1072.5
20260505201610 61 202 0.0 0.0 0.06 0.13 0.13 87 1072.4
20260505200708 61 227 0.0 2.0 0.05 0.12 0.11 85 1072.4
20260505195725 63 292 0.0 0.0 0.03 0.10 0.09 80 1072.7
20260505194726 65 341 0.0 2.0 0.01 0.08 0.08 74 1072.8
20260505193725 67 247 0.0 2.0 0.00 0.07 0.07 69 1072.2
20260505193610 67 226 2.0 3.0 0.00 0.07 0.07 69 1072.2
20260505192624 68 225 0.0 1.0 0.00 0.07 0.07 68 1071.9
20260505191709 68 180 0.0 1.0 0.00 0.07 0.07 68 1072.0
20260505190710 68 270 0.0 0.0 0.00 0.07 0.07 68 1072.2
20260505185724 67 216 1.0 4.0 0.00 0.07 0.07 68 1072.3
20260505185626 67 233 0.0 3.0 0.00 0.07 0.07 68 1072.3
20260505184609 67 251 2.0 5.0 0.00 0.07 0.07 69 1072.5
20260505183609 67 249 3.0 5.0 0.00 0.07 0.07 68 1072.6
20260505181608 67 213 1.0 2.0 0.00 0.07 0.07 69 1073.0
20260505180608 67 71 0.0 0.0 0.00 0.07 0.07 69 1073.0
20260505175609 67 223 0.0 1.0 0.00 0.07 0.07 69 1073.2
20260505174608 67 207 0.0 2.0 0.00 0.07 0.07 69 1073.2
20260505173624 66 202 0.0 0.0 0.00 0.07 0.07 68 1073.3
20260505173524 66 202 0.0 1.0 0.00 0.07 0.07 67 1073.5
20260505172608 66 251 2.0 5.0 0.00 0.07 0.07 68 1073.5
20260505172525 66 247 0.0 4.0 0.00 0.07 0.07 67 1073.5
20260505172424 66 235 4.0 5.0 0.00 0.07 0.07 68 1073.4
20260505171409 67 67 0.0 0.0 0.00 0.07 0.07 68 1073.4
20260505170411 67 275 0.0 3.0 0.00 0.07 0.07 68 1073.4
20260505170308 67 215 0.0 1.0 0.00 0.07 0.07 68 1073.3
20260505170224 67 219 2.0 5.0 0.00 0.07 0.07 68 1073.4
20260505165307 66 310 1.0 3.0 0.00 0.07 0.07 69 1073.4
20260505164310 67 344 1.0 2.0 0.00 0.07 0.07 68 1073.4
20260505163224 66 230 2.0 4.0 0.00 0.07 0.07 70 1073.5
20260505162209 66 8 1.0 4.0 0.00 0.07 0.07 69 1073.4
20260505162125 66 141 0.0 2.0 0.00 0.07 0.07 68 1073.5
20260505161208 66 217 0.0 4.0 0.00 0.07 0.07 69 1073.4
20260505153208 68 292 0.0 0.0 0.00 0.07 0.07 70 1073.1
20260505152210 67 232 2.0 5.0 0.00 0.07 0.07 73 1073.2
20260505152109 67 250 1.0 3.0 0.00 0.07 0.07 73 1073.3
20260505151109 67 226 3.0 10.0 0.00 0.07 0.07 77 1073.3
20260505124608 58 212 3.0 5.0 0.01 0.07 0.07 93 1072.8
20260505123608 57 209 2.0 4.0 0.01 0.07 0.07 92 1072.8
20260505122608 57 201 0.0 1.0 0.01 0.07 0.07 93 1072.8
20260505120609 56 247 0.0 1.0 0.01 0.07 0.07 91 1072.9
20260505115707 56 229 1.0 2.0 0.01 0.07 0.07 92 1072.9
20260505114710 56 202 0.0 1.0 0.00 0.06 0.06 91 1072.7
20260505114627 56 221 0.0 2.0 0.00 0.06 0.06 91 1072.8
20260505114509 56 225 0.0 0.0 0.00 0.06 0.06 91 1072.5
20260505113507 56 225 0.0 0.0 0.01 0.06 0.06 91 1072.5
20260505113408 56 225 0.0 0.0 0.01 0.06 0.06 91 1072.6
20260505112410 55 249 1.0 2.0 0.02 0.06 0.06 90 1072.3
20260505111409 55 67 0.0 0.0 0.04 0.06 0.06 89 1071.9
20260505100624 57 247 1.0 2.0 0.02 0.02 0.02 85 1073.2
20260505095608 58 247 0.0 1.0 0.01 0.01 0.01 84 1073.2
20260505094609 59 247 0.0 0.0 0.00 0.00 0.00 82 1073.2
20260505093625 59 247 0.0 0.0 0.00 0.00 0.00 82 1073.0
20260505093508 59 247 0.0 0.0 0.00 0.00 0.00 81 1073.1
20260505085725 59 202 1.0 2.0 0.00 0.00 0.00 74 1071.9
20260505084807 59 202 0.0 0.0 0.00 0.00 0.00 72 1071.7
20260505083825 60 202 0.0 0.0 0.00 0.00 0.00 69 1071.8
20260505082909 61 202 0.0 0.0 0.00 0.00 0.00 67 1071.7
20260505082807 61 202 0.0 0.0 0.00 0.00 0.00 67 1071.6
20260505081809 62 202 0.0 0.0 0.00 0.00 0.00 66 1071.4
20260505080907 62 202 0.0 2.0 0.00 0.00 0.00 65 1071.1
20260505080809 62 202 0.0 0.0 0.00 0.00 0.00 65 1071.2
20260505075806 62 202 0.0 0.0 0.00 0.00 0.00 66 1071.1
20260505075709 62 202 0.0 0.0 0.00 0.00 0.00 66 1071.1
20260505074708 63 180 0.0 0.0 0.00 0.00 0.00 65 1071.1
20260505073708 63 157 0.0 0.0 0.00 0.00 0.00 65 1071.1
20260505072807 63 67 0.0 0.0 0.00 0.00 0.00 63 1070.9
20260505071809 64 202 0.0 0.0 0.00 0.00 0.00 62 1070.9
20260505070907 64 202 0.0 0.0 0.00 0.00 0.00 62 1071.0
20260505065911 64 202 0.0 0.0 0.00 0.00 0.00 62 1071.0
20260505064924 65 60 1.0 2.0 0.00 0.00 0.00 62 1070.8
20260505064809 65 319 0.0 1.0 0.00 0.00 0.00 61 1070.8
20260505064723 65 275 0.0 4.0 0.00 0.00 0.00 62 1070.9
20260505062907 64 221 2.0 6.0 0.00 0.00 0.00 63 1070.7
20260505061908 64 321 0.0 3.0 0.00 0.00 0.00 64 1070.6
20260505061825 64 337 0.0 0.0 0.00 0.00 0.00 63 1070.6
20260505060808 63 165 0.0 2.0 0.00 0.00 0.00 65 1070.4
20260505060709 63 211 0.0 2.0 0.00 0.00 0.00 65 1070.5
20260505055623 63 158 0.0 0.0 0.00 0.00 0.00 65 1070.2
20260505054622 63 192 0.0 2.0 0.00 0.00 0.00 63 1070.0
20260505053709 64 180 0.0 0.0 0.00 0.00 0.00 62 1070.1
20260505052710 64 176 0.0 1.0 0.00 0.00 0.00 62 1069.9
20260505052623 65 205 0.0 0.0 0.00 0.00 0.00 62 1069.9
20260505050708 65 220 2.0 4.0 0.00 0.00 0.00 62 1069.9